Theta_e
295 293 292 291 291 289 288 286 285 284 283 282 282 281 282 281 282 282 281 281 281 280 281 280 279 279 279 279 279 279 278 279 278 277 278 278 278 278 279 279 280 279 280
293 292 291 289 288 287 286 285 284 283 283 282 281 281 281 281 281 281 280 280 280 280 279 279 278 278 277 278 278 277 278 277 277 275 275 276 276 277 278 278 278 279 279
291 291 289 288 287 287 286 284 283 283 282 281 281 281 281 281 281 281 281 280 280 280 279 278 278 278 277 277 277 277 276 276 276 276 275 276 276 277 277 278 278 278 278
290 290 288 287 287 287 285 284 283 282 281 281 281 280 280 280 280 280 279 279 279 279 279 279 278 278 277 277 276 276 276 275 275 274 274 274 275 276 277 276 276 278 277
288 288 288 287 286 285 284 283 282 281 281 281 280 280 280 280 280 279 279 279 279 278 278 278 278 278 279 278 277 276 276 275 275 274 273 274 274 274 274 276 275 276 276
287 287 287 285 285 284 283 282 281 280 280 280 280 279 279 279 283 283 280 279 278 278 277 277 277 278 278 281 281 280 278 275 274 274 274 273 274 275 276 275 275 273 272
286 286 285 284 283 283 282 281 280 280 280 279 279 279 279 279 285 284 282 279 279 278 277 277 277 277 277 277 281 283 283 283 281 277 275 275 275 276 276 275 275 274 273
285 284 284 283 282 282 281 281 280 280 279 279 279 279 279 279 285 285 282 279 279 278 277 277 277 277 276 276 276 275 276 276 277 278 278 278 277 277 277 277 276 274 273
283 283 283 282 281 281 281 280 280 279 279 279 279 279 279 279 285 286 283 279 279 278 277 277 277 277 278 281 277 275 276 276 278 281 281 282 283 283 283 279 272 271 272
282 282 282 282 281 280 281 280 280 280 279 279 279 279 279 279 286 286 285 281 280 279 278 277 278 277 279 281 279 277 275 276 276 276 276 278 280 279 281 279 276 272 270
281 281 280 281 280 280 280 281 280 279 279 278 278 278 278 279 283 287 287 282 281 280 279 278 278 281 282 282 282 279 277 279 279 278 277 276 275 275 275 275 274 273 270
280 280 281 281 281 281 280 279 280 279 278 277 277 277 278 278 281 286 288 285 284 280 279 278 278 281 281 282 282 282 283 282 281 280 275 273 272 272 273 273 273 273 272
278 280 280 280 281 281 280 279 279 279 278 277 277 276 276 276 278 284 286 287 287 282 280 279 280 280 281 281 280 281 278 276 275 273 272 272 272 273 273 272 271 271 271
281 281 281 280 280 280 281 280 280 279 278 278 277 278 277 276 277 278 280 283 283 283 280 277 277 277 277 275 272 272 272 272 271 270 270 271 272 270 269 270 268 267 266
282 281 281 281 281 281 280 281 280 281 281 279 280 281 278 277 277 278 278 276 274 275 269 269 270 269 269 268 267 267 268 268 267 268 268 268 269 269 268 268 267 266 264
280 280 281 281 279 277 276 277 282 282 284 284 284 281 276 279 280 281 280 279 278 278 268 267 265 265 266 265 264 263 264 263 264 265 265 265 265 265 266 266 265 264 262
279 277 277 277 276 275 275 276 275 278 281 280 281 280 279 278 280 280 280 279 280 273 264 263 263 263 262 261 261 261 261 262 262 262 262 262 263 263 263 263 262 262 261
272 275 277 276 275 275 275 276 276 274 273 273 278 277 279 280 280 280 280 272 264 262 260 259 259 258 258 258 258 258 259 260 260 260 260 260 260 260 260 260 260 260 260
266 265 266 267 270 271 271 271 271 268 267 263 265 268 268 278 277 272 271 261 262 259 256 256 255 255 256 256 256 256 256 257 256 256 256 256 257 257 258 258 259 259 259
260 262 262 263 263 264 265 265 264 264 262 262 262 261 258 263 260 257 256 257 257 256 254 255 253 253 253 254 254 254 254 254 255 254 255 255 256 256 257 257 257 258 258
259 259 260 260 260 260 262 263 262 262 261 259 257 255 262 259 257 256 255 254 254 253 253 253 252 251 251 251 251 251 251 254 253 252 253 255 255 255 255 257 257 258 258
257 256 257 256 257 258 256 257 258 258 257 257 254 255 269 256 255 252 251 251 251 251 251 252 251 250 251 250 251 251 251 252 252 251 252 253 254 255 255 256 256 257 257
256 256 255 254 255 255 254 254 255 256 255 255 255 255 255 254 253 252 251 251 250 251 248 247 248 248 248 247 249 251 251 252 252 252 252 253 253 254 254 255 255 255 255
254 255 254 252 252 252 253 252 253 253 255 254 254 254 254 252 252 253 253 252 250 249 248 248 248 249 248 248 248 248 249 250 250 250 251 252 252 252 254 254 254 254 254
253 253 253 252 251 251 252 253 255 255 255 254 253 253 252 252 252 252 252 252 252 251 250 249 248 248 248 249 248 248 248 253 253 250 250 251 251 250 250 252 252 252 250
251 252 253 253 254 253 252 253 252 253 253 254 253 254 254 254 254 254 253 251 251 250 250 249 248 248 248 249 249 250 250 254 252 251 251 250 250 249 249 249 249 248 248
Wind_Speed
12 11 11 9 10 9 9 8 8 8 9 9 10 10 11 11 9 9 9 10 10 9 8 9 8 8 5 4 4 3 3 2 2 1 2 2 3 6 7 6 8 7 8
11 12 12 11 11 10 10 10 10 11 9 8 10 10 11 10 11 12 12 10 11 11 9 8 8 6 6 5 4 4 3 3 3 3 1 2 2 4 7 8 7 6 8
11 12 12 12 12 13 13 12 12 12 11 10 11 13 13 11 12 11 11 11 9 9 9 9 9 9 7 6 5 4 3 3 3 2 2 1 2 3 5 7 7 8 7
11 12 12 12 13 13 12 12 13 14 14 13 12 12 12 12 11 10 11 10 9 8 8 7 8 8 8 8 6 5 5 4 3 3 3 4 4 4 5 7 7 7 10
13 14 14 13 12 11 12 13 13 14 13 13 12 10 11 11 9 12 11 10 10 9 6 6 6 6 9 9 5 6 6 5 4 4 4 4 6 4 5 4 8 10 10
14 15 12 12 12 12 12 12 13 13 12 13 13 13 13 9 19 19 13 10 9 8 8 5 5 6 7 11 12 9 9 6 5 3 5 8 9 7 6 7 8 8 8
13 11 12 12 13 13 12 13 13 14 14 14 13 12 12 8 20 20 18 9 9 7 7 6 6 5 6 5 10 13 13 15 14 6 9 9 10 8 8 9 10 9 10
11 11 12 12 12 12 13 13 13 12 14 13 12 11 10 9 21 21 19 9 6 6 6 7 7 6 7 7 6 6 7 7 8 7 9 9 9 8 10 11 10 7 7
10 10 9 10 10 11 12 12 11 11 11 11 10 10 10 10 22 22 16 8 7 5 6 6 6 6 10 13 7 7 8 8 9 17 19 20 20 21 17 4 3 5 10
9 9 10 11 11 11 11 11 10 10 9 8 9 9 10 10 20 22 15 6 7 6 6 6 11 7 11 13 8 6 9 8 7 8 8 12 14 11 17 10 7 9 6
7 8 8 9 10 10 10 9 9 10 9 8 9 8 8 10 14 21 20 7 6 6 6 5 6 13 15 15 15 8 9 8 11 10 8 6 7 7 6 7 8 8 7
8 8 9 9 8 9 11 9 11 11 10 9 8 6 6 8 13 20 18 15 13 8 7 5 6 13 14 13 11 13 17 16 6 6 3 4 5 6 8 8 10 8 8
9 9 9 9 9 10 12 12 9 10 9 9 9 8 7 6 5 16 16 14 16 8 5 8 11 11 12 8 8 11 8 4 5 5 6 7 6 7 7 5 8 8 9
8 9 9 10 9 7 5 7 7 8 9 8 9 9 8 8 7 6 5 6 11 8 6 4 4 3 2 3 4 4 3 4 4 6 7 7 7 5 6 6 7 6 7
8 7 8 6 8 9 6 6 6 6 8 8 8 7 7 7 8 12 10 7 5 6 5 2 2 2 3 3 3 3 3 4 4 5 6 7 7 8 8 6 6 6 7
8 7 6 6 6 6 7 6 8 8 8 7 10 8 1 4 12 16 16 16 15 13 3 3 3 3 2 1 0 2 2 3 3 5 6 7 8 8 8 7 6 6 7
7 7 6 6 6 7 6 7 8 6 9 7 8 8 10 10 13 16 15 14 12 9 3 3 3 3 3 2 1 1 1 2 3 3 5 6 7 7 8 7 7 7 7
5 7 6 6 6 6 6 6 7 8 7 4 10 10 13 15 15 14 16 14 4 4 3 3 3 4 3 3 2 1 1 2 3 3 4 5 5 6 6 7 6 7 7
6 4 4 4 4 6 5 6 6 7 7 5 3 7 4 13 13 12 9 2 3 2 2 3 3 3 3 2 1 0 1 2 3 3 3 4 4 4 5 5 6 8 9
4 6 4 4 5 5 5 6 6 6 6 5 4 4 2 4 3 2 1 2 3 3 4 4 4 3 3 2 1 1 3 3 3 3 3 4 4 4 5 5 6 7 7
3 4 6 5 4 3 4 5 4 6 6 4 3 3 6 3 3 1 2 3 4 4 4 4 4 3 3 3 3 3 4 4 3 3 3 4 3 3 3 5 6 6 7
3 4 4 4 4 4 4 4 4 4 4 5 2 2 10 3 4 4 3 3 3 3 2 3 3 4 4 4 5 5 4 5 4 4 4 3 3 3 4 5 5 6 6
3 4 4 3 3 6 4 4 4 5 5 5 5 3 3 4 4 4 4 4 4 3 3 3 3 4 4 4 5 5 5 6 5 4 4 4 4 4 4 5 6 5 5
4 5 5 4 3 4 4 4 4 4 4 4 4 4 5 4 5 5 4 4 3 4 4 4 5 6 4 5 4 5 6 6 4 5 6 5 5 4 5 5 5 7 6
4 4 4 4 4 3 3 3 3 3 4 4 4 3 3 3 4 4 4 4 4 4 5 5 4 6 9 9 8 8 8 10 7 6 5 6 7 6 5 4 5 5 5
4 4 4 3 3 3 3 3 3 3 3 3 3 4 4 4 5 5 4 4 5 5 6 4 6 9 10 8 9 10 10 11 9 10 7 6 6 5 4 6 6 4 6
Wind_Direction
170 169 165 168 163 158 166 160 157 141 154 162 151 147 142 137 133 127 126 130 126 128 128 128 125 133 129 125 130 130 125 119 133 176 259 304 315 345 337 331 326 319 309
169 166 172 164 162 165 167 165 160 155 157 160 148 148 142 150 144 144 144 148 146 146 142 133 141 138 141 160 166 152 153 140 140 212 263 322 303 303 304 304 301 291 299
176 172 173 173 174 176 171 165 162 158 162 159 163 159 157 168 152 150 150 149 145 145 150 153 159 155 165 177 178 168 162 158 172 197 291 270 286 301 298 287 291 295 292
179 182 182 182 184 182 172 168 167 166 166 172 173 168 164 158 155 147 144 145 146 150 159 166 161 175 175 180 186 188 179 175 182 213 255 273 270 279 276 294 301 305 309
181 190 191 181 180 174 170 172 169 174 175 169 164 166 161 155 161 154 151 150 151 158 155 169 171 184 190 191 184 197 191 194 200 222 244 257 261 268 264 287 290 304 305
187 192 181 176 175 176 174 171 168 170 168 164 168 171 165 162 170 162 152 151 154 157 169 169 171 179 205 211 219 215 210 199 214 211 244 251 264 268 271 276 283 298 318
193 189 177 174 176 176 170 170 172 175 168 173 170 167 166 157 172 164 160 154 154 169 157 179 188 191 194 213 237 241 239 231 224 208 236 242 263 256 262 272 274 270 271
189 186 175 174 175 170 170 175 175 173 176 172 164 165 162 168 175 166 161 151 158 159 173 184 196 189 199 202 216 237 246 251 259 268 261 264 257 264 256 261 270 274 277
181 178 173 166 166 168 174 172 168 165 168 167 162 153 160 170 175 169 160 144 169 173 180 190 202 202 218 228 215 237 250 250 254 260 263 264 268 269 270 221 226 261 290
166 164 159 163 162 167 169 163 159 152 145 148 155 166 165 166 175 173 166 156 162 184 191 200 215 214 230 236 239 233 257 264 249 248 250 262 270 270 270 248 253 259 266
135 138 142 148 151 150 147 145 142 140 139 148 157 158 159 169 177 184 180 173 175 192 196 196 202 231 240 239 243 230 243 264 257 259 252 247 247 252 258 248 229 233 244
126 130 136 137 137 138 135 139 143 144 151 156 155 160 172 173 187 195 196 189 193 200 206 194 184 217 235 246 254 261 272 281 286 279 291 274 263 258 250 242 240 240 249
127 137 134 131 139 146 147 150 149 156 164 163 176 183 178 168 188 203 205 209 217 205 192 196 197 213 235 258 293 300 343 358 329 311 304 299 281 280 284 260 254 246 256
127 129 132 136 135 135 141 156 163 173 171 171 180 185 177 176 190 195 201 217 229 222 167 144 154 202 271 64 62 33 20 0 331 309 303 303 304 292 284 277 280 267 261
132 129 132 137 145 145 139 162 159 174 179 175 188 178 167 188 199 190 190 191 173 178 119 98 106 110 98 78 50 29 12 354 332 316 307 307 308 307 298 294 271 275 264
133 137 144 137 124 122 115 92 109 136 153 163 174 162 132 162 179 193 201 198 193 191 93 130 135 123 139 124 337 332 333 337 335 334 328 317 308 306 304 306 282 276 279
134 130 119 126 138 137 132 136 125 102 116 129 158 165 174 166 171 169 168 167 161 131 115 135 144 160 168 177 173 196 240 326 345 349 326 313 311 310 313 307 300 295 291
110 133 141 148 147 144 146 143 138 138 136 115 129 140 145 149 153 159 140 110 110 61 97 148 160 162 168 169 175 191 327 354 345 317 309 306 305 310 306 297 297 294 293
130 129 126 136 136 139 136 134 128 126 136 127 92 66 62 142 121 81 95 108 144 135 130 138 143 157 164 168 161 78 313 298 288 295 292 296 299 298 291 289 296 293 291
72 111 113 127 124 122 124 133 131 139 141 148 147 145 134 79 112 132 87 125 120 132 154 155 167 168 168 175 191 235 258 260 273 274 280 286 294 284 297 298 293 299 299
100 91 98 90 97 113 132 143 135 144 152 156 159 177 164 99 119 135 167 161 160 162 170 173 170 173 179 188 211 223 235 260 260 261 267 277 291 288 289 291 295 290 291
91 104 99 115 120 114 117 116 120 119 128 139 143 214 171 116 142 161 173 184 195 188 182 170 186 198 193 195 204 218 233 245 248 244 257 260 273 273 284 286 281 288 292
91 97 87 84 97 115 108 119 131 142 148 142 147 141 128 153 166 177 190 194 189 198 196 203 211 228 221 219 214 213 220 231 229 213 237 251 256 264 265 276 280 282 283
81 84 91 84 80 92 106 118 121 127 139 153 161 171 176 180 186 195 197 197 199 214 205 209 218 224 232 231 220 219 228 239 224 225 223 233 239 239 252 255 261 271 275
83 88 93 112 111 117 114 134 147 156 163 171 183 191 194 191 200 213 203 208 218 219 223 214 217 230 236 235 233 232 232 246 230 210 215 221 229 224 231 235 246 257 263
86 98 112 123 129 136 142 165 181 189 198 206 197 203 205 206 218 218 213 216 224 224 231 228 229 231 238 240 240 240 233 232 225 224 214 213 221 224 220 235 239 242 256